FLOCK 2E'-17

Last updated on Wed Jun 27 2018 00:15:05 GMT+0000 (Coordinated Universal Time)

1 41776U 98067KN 18177.35537988 .11238463 12459-4 78797-3 0 9991 2 41776 51.6078 275.1051 0007720 296.0310 63.9922 16.40171370101713

Satellite not in orbit